When you browse on this site, cookies collect data to enhance your experience and personalize the content and advertising you see.
Visit our Privacy Policy to learn more. By continuing to use the site, you agree to this use of cookies and data.
  • In Hungary
  • List of Countries
  • For 7 days
  • Water Temperature
  • Satellite Maps
  • Weather Map
  • News
  • Weather Widgets
  • user-avatar
    Login

    Hourly Weather Kavasaki

    Today, 19 January, Saturday

    Time Temperature Precipitation Wind Pressure Humidity
    00:00 +2°C° 0 mm 2 mps 762 mmHg 60%
    01:00 +3°C° 0 mm 1 mps 762 mmHg 60%
    02:00 +3°C° 0 mm 1 mps 762 mmHg 61%
    03:00 +3°C° 0 mm 1 mps 762 mmHg 65%
    04:00 +3°C° 0 mm 1 mps 762 mmHg 65%
    05:00 +3°C° 0 mm 1 mps 762 mmHg 66%
    06:00 +3°C° 0 mm 1 mps 762 mmHg 66%
    07:00 +4°C° 0 mm 1 mps 762 mmHg 63%
    08:00 +5°C° 0 mm 1 mps 762 mmHg 59%
    09:00 +6°C° 0 mm 1 mps 762 mmHg 55%
    10:00 +8°C° 0 mm 1 mps 762 mmHg 52%
    11:00 +9°C° 0 mm 1 mps 761 mmHg 48%
    12:00 +11°C° 0 mm 1 mps 761 mmHg 45%
    13:00 +10°C° 0 mm 2 mps 761 mmHg 45%
    14:00 +10°C° 0 mm 2 mps 760 mmHg 45%
    15:00 +12°C° 0 mm 2 mps 760 mmHg 45%
    16:00 +10°C° 0 mm 2 mps 760 mmHg 50%
    17:00 +9°C° 0 mm 1 mps 760 mmHg 55%
    18:00 +8°C° 0 mm 1 mps 760 mmHg 60%
    19:00 +8°C° 0 mm 1 mps 760 mmHg 61%
    20:00 +7°C° 0 mm 1 mps 759 mmHg 63%
    21:00 +6°C° 0 mm 1 mps 759 mmHg 64%
    22:00 +6°C° 0 mm 1 mps 759 mmHg 64%
    23:00 +6°C° 0 mm 1 mps 759 mmHg 65%

    Tomorrow, 20 January, Sunday

    Time Temperature Precipitation Wind Pressure Humidity
    00:00 +5°C° 0 mm 1 mps 758 mmHg 65%
    01:00 +5°C° 0 mm 1 mps 758 mmHg 66%
    02:00 +5°C° 0 mm 1 mps 757 mmHg 67%
    03:00 +5°C° 0 mm 1 mps 756 mmHg 68%
    04:00 +5°C° 0 mm 1 mps 756 mmHg 69%
    05:00 +5°C° 0 mm 1 mps 755 mmHg 70%
    06:00 +5°C° 0 mm 1 mps 754 mmHg 71%
    07:00 +5°C° 0.6 mm 1 mps 753 mmHg 72%
    08:00 +6°C° 0.6 mm 1 mps 753 mmHg 74%
    09:00 +6°C° 0.6 mm 1 mps 752 mmHg 75%
    10:00 +6°C° 0.8 mm 1 mps 751 mmHg 75%
    11:00 +7°C° 0.8 mm 1 mps 751 mmHg 75%
    12:00 +7°C° 0.8 mm 1 mps 750 mmHg 76%
    13:00 +8°C° 0.1 mm 1 mps 749 mmHg 74%
    14:00 +8°C° 0.1 mm 2 mps 749 mmHg 73%
    15:00 +9°C° 0.1 mm 2 mps 749 mmHg 72%
    16:00 +9°C° 0 mm 2 mps 749 mmHg 72%
    17:00 +8°C° 0 mm 3 mps 750 mmHg 73%
    18:00 +7°C° 0 mm 4 mps 750 mmHg 73%
    19:00 +6°C° 0 mm 4 mps 750 mmHg 72%
    20:00 +6°C° 0 mm 4 mps 751 mmHg 71%
    21:00 +5°C° 0 mm 4 mps 751 mmHg 70%
    22:00 +5°C° 0 mm 4 mps 752 mmHg 67%
    23:00 +4°C° 0 mm 4 mps 752 mmHg 64%

    Day after tomorrow, 21 January, Monday

    Time Temperature Precipitation Wind Pressure Humidity
    00:00 +2°C° 0 mm 5 mps 753 mmHg 62%
    01:00 +1°C° 0 mm 4 mps 754 mmHg 61%
    02:00 +1°C° 0 mm 4 mps 754 mmHg 61%
    03:00 0°C° 0 mm 4 mps 754 mmHg 60%
    04:00 +1°C° 0 mm 3 mps 755 mmHg 60%
    05:00 0°C° 0 mm 3 mps 755 mmHg 60%
    06:00 0°C° 0 mm 3 mps 755 mmHg 59%
    07:00 0°C° 0 mm 3 mps 756 mmHg 57%
    08:00 +1°C° 0 mm 3 mps 756 mmHg 54%
    09:00 +2°C° 0 mm 3 mps 756 mmHg 51%
    10:00 +3°C° 0 mm 3 mps 756 mmHg 48%
    11:00 +4°C° 0 mm 3 mps 755 mmHg 45%
    12:00 +7°C° 0 mm 3 mps 755 mmHg 43%
    13:00 +6°C° 0.2 mm 4 mps 754 mmHg 48%
    14:00 +6°C° 0.2 mm 4 mps 754 mmHg 54%
    15:00 +6°C° 0.2 mm 4 mps 754 mmHg 59%
    16:00 +5°C° 0.1 mm 3 mps 754 mmHg 61%
    17:00 +5°C° 0.1 mm 3 mps 754 mmHg 64%
    18:00 +6°C° 0.1 mm 2 mps 754 mmHg 66%
    19:00 +5°C° 0 mm 2 mps 754 mmHg 69%
    20:00 +6°C° 0 mm 1 mps 754 mmHg 71%
    21:00 +5°C° 0 mm 1 mps 755 mmHg 74%
    22:00 +5°C° 0.1 mm 1 mps 754 mmHg 74%
    23:00 +5°C° 0.1 mm 1 mps 754 mmHg 74%

    22 January, Tuesday

    Time Temperature Precipitation Wind Pressure Humidity
    00:00 +5°C° 0.1 mm 1 mps 754 mmHg 74%
    01:00 +5°C° 0 mm 1 mps 754 mmHg 74%
    02:00 +5°C° 0 mm 1 mps 753 mmHg 75%
    03:00 +4°C° 0 mm 1 mps 753 mmHg 75%
    04:00 +4°C° 0 mm 1 mps 753 mmHg 75%
    05:00 +4°C° 0 mm 1 mps 752 mmHg 75%
    06:00 +4°C° 0 mm 1 mps 752 mmHg 75%
    07:00 +5°C° 0 mm 1 mps 752 mmHg 70%
    08:00 +6°C° 0 mm 1 mps 751 mmHg 66%
    09:00 +6°C° 0 mm 2 mps 751 mmHg 62%
    10:00 +7°C° 0.1 mm 3 mps 751 mmHg 57%
    11:00 +7°C° 0.1 mm 5 mps 751 mmHg 52%
    12:00 +8°C° 0.1 mm 6 mps 750 mmHg 48%
    13:00 +8°C° 0.3 mm 7 mps 750 mmHg 50%
    14:00 +6°C° 0.3 mm 7 mps 750 mmHg 53%
    15:00 +6°C° 0.3 mm 7 mps 750 mmHg 56%
    16:00 +5°C° 0 mm 6 mps 751 mmHg 58%
    17:00 +5°C° 0 mm 4 mps 751 mmHg 60%
    18:00 +4°C° 0 mm 3 mps 752 mmHg 62%
    19:00 +3°C° 0 mm 3 mps 753 mmHg 63%
    20:00 +3°C° 0 mm 3 mps 753 mmHg 64%
    21:00 +3°C° 0 mm 2 mps 754 mmHg 66%
    22:00 +3°C° 0 mm 2 mps 754 mmHg 67%
    23:00 +2°C° 0 mm 2 mps 754 mmHg 68%

    23 January, Wednesday

    Time Temperature Precipitation Wind Pressure Humidity
    00:00 +2°C° 0 mm 2 mps 754 mmHg 70%
    01:00 +1°C° 0 mm 2 mps 754 mmHg 69%
    02:00 +1°C° 0 mm 2 mps 754 mmHg 69%
    03:00 +2°C° 0 mm 1 mps 754 mmHg 68%
    04:00 +2°C° 0 mm 1 mps 755 mmHg 68%
    05:00 +1°C° 0 mm 1 mps 755 mmHg 67%
    06:00 +1°C° 0 mm 1 mps 755 mmHg 66%
    07:00 +2°C° 0 mm 1 mps 755 mmHg 62%
    08:00 +3°C° 0 mm 1 mps 755 mmHg 58%
    09:00 +4°C° 0 mm 1 mps 755 mmHg 53%
    10:00 +4°C° 0 mm 2 mps 755 mmHg 50%
    11:00 +5°C° 0 mm 2 mps 755 mmHg 47%
    12:00 +7°C° 0 mm 2 mps 754 mmHg 43%
    13:00 +7°C° 0 mm 3 mps 754 mmHg 44%
    14:00 +7°C° 0 mm 3 mps 754 mmHg 45%
    15:00 +7°C° 0 mm 3 mps 754 mmHg 46%
    16:00 +5°C° 0.1 mm 3 mps 754 mmHg 52%
    17:00 +6°C° 0.1 mm 2 mps 754 mmHg 57%
    18:00 +5°C° 0.1 mm 2 mps 755 mmHg 62%
    19:00 +5°C° 0.2 mm 2 mps 755 mmHg 63%
    20:00 +3°C° 0.2 mm 3 mps 755 mmHg 65%
    21:00 +3°C° 0.2 mm 3 mps 756 mmHg 66%
    22:00 +2°C° 0 mm 3 mps 756 mmHg 66%
    23:00 +1°C° 0 mm 3 mps 757 mmHg 65%

    24 January, Thursday

    Time Temperature Precipitation Wind Pressure Humidity
    00:00 +2°C° 0 mm 2 mps 757 mmHg 64%
    01:00 +1°C° 0 mm 2 mps 757 mmHg 64%
    02:00 +1°C° 0 mm 2 mps 758 mmHg 65%
    03:00 +1°C° 0 mm 2 mps 758 mmHg 65%
    04:00 -1°C° 0 mm 2 mps 758 mmHg 66%
    05:00 -1°C° 0 mm 2 mps 758 mmHg 66%
    06:00 -1°C° 0 mm 2 mps 759 mmHg 66%
    07:00 +1°C° 0 mm 2 mps 759 mmHg 62%
    08:00 +2°C° 0 mm 2 mps 759 mmHg 58%
    09:00 +3°C° 0 mm 2 mps 759 mmHg 54%
    10:00 +3°C° 0 mm 3 mps 759 mmHg 51%
    11:00 +4°C° 0 mm 3 mps 759 mmHg 47%
    12:00 +5°C° 0 mm 4 mps 759 mmHg 44%
    13:00 +6°C° 0 mm 4 mps 759 mmHg 44%
    14:00 +6°C° 0 mm 5 mps 759 mmHg 45%
    15:00 +6°C° 0 mm 5 mps 758 mmHg 45%
    16:00 +5°C° 0 mm 4 mps 759 mmHg 50%
    17:00 +4°C° 0 mm 4 mps 759 mmHg 54%
    18:00 +3°C° 0 mm 3 mps 760 mmHg 59%
    19:00 +2°C° 0 mm 3 mps 760 mmHg 61%
    20:00 +2°C° 0 mm 2 mps 760 mmHg 64%
    21:00 +2°C° 0 mm 2 mps 761 mmHg 67%
    22:00 +2°C° 0 mm 2 mps 760 mmHg 67%
    23:00 +1°C° 0 mm 2 mps 760 mmHg 68%
    Show more